Theta_e
303 303 303 303 303 303 303 303 304 304 304 304 304 304 304 305 305 309 317 317 315 314 312 319 320 318 320 320 318 320 321 322 317 316 315 315 315 319 320 320 321 318 317 315 317 322 326 321 323 329 322 322 322 322
303 303 303 303 303 303 304 304 305 308 307 305 304 304 304 305 305 307 310 313 312 313 312 316 320 319 318 319 319 320 321 322 321 320 318 317 320 316 317 320 316 321 317 320 319 320 319 320 322 322 323 322 322 322
303 304 304 303 303 303 304 306 308 309 309 309 305 304 304 305 305 306 309 313 313 317 316 316 314 319 317 319 318 319 323 324 324 323 317 312 318 312 317 317 319 317 318 319 319 320 319 321 321 321 321 320 320 319
303 305 305 305 303 304 304 306 307 308 309 309 306 304 305 305 305 307 310 316 315 314 316 320 319 318 317 318 318 318 321 322 321 320 316 312 315 314 314 315 315 315 318 317 317 319 319 319 320 320 319 319 318 318
304 304 305 305 304 304 304 305 306 306 308 308 306 305 306 306 306 309 314 316 316 313 313 315 319 319 319 318 318 317 320 320 320 319 314 314 314 314 311 312 315 316 317 319 319 319 319 319 319 319 319 318 317 316
305 304 305 305 304 303 305 305 305 307 309 309 307 307 307 307 308 313 318 318 317 312 313 311 320 321 320 318 317 318 319 320 321 320 317 317 317 315 314 315 316 319 318 321 320 321 320 320 319 318 317 315 315 316
307 306 306 305 303 304 305 305 307 308 308 309 309 309 310 310 309 312 317 314 313 313 315 315 314 320 318 318 319 320 321 321 320 319 318 316 316 316 311 317 319 319 320 321 321 319 319 318 317 315 315 316 317 317
308 306 306 305 304 304 305 305 306 306 306 307 310 310 311 310 312 315 316 317 316 313 314 312 313 318 319 319 319 320 321 320 319 317 316 315 315 314 315 314 319 320 320 319 318 318 315 316 316 316 317 317 316 315
308 308 306 304 303 304 305 306 306 306 306 308 311 311 314 315 316 316 315 314 314 314 315 314 314 316 318 319 319 319 319 315 317 314 314 315 311 315 314 315 320 320 320 319 318 316 316 316 315 315 315 315 315 313
308 308 306 304 303 304 305 305 305 305 305 309 311 314 316 316 313 313 315 315 316 315 313 312 315 315 318 315 316 317 317 313 317 315 316 314 314 318 318 318 320 320 320 318 318 317 316 315 315 315 315 314 314 315
308 307 305 304 304 304 304 304 305 307 307 309 310 312 313 312 314 316 317 316 315 314 316 316 315 315 318 315 315 318 317 314 316 314 315 314 316 314 318 318 320 320 318 317 316 315 315 316 316 314 314 313 315 315
308 307 305 304 304 304 305 306 306 306 307 309 310 311 313 315 316 314 313 314 315 316 315 315 315 315 319 319 317 318 318 314 317 314 316 316 312 316 317 319 319 317 317 316 317 317 317 316 314 314 314 314 315 315
308 307 305 304 305 306 306 306 306 307 309 310 312 314 314 313 309 316 318 317 317 317 318 319 315 319 319 319 317 316 318 317 315 315 317 316 318 315 316 317 318 318 318 317 317 317 317 315 315 314 314 315 316 315
308 307 305 305 306 306 306 306 306 307 310 311 313 310 311 312 312 315 315 316 316 317 319 319 318 319 318 317 316 318 315 315 318 316 316 315 317 318 319 319 319 318 318 317 316 316 314 315 314 314 315 315 315 313
308 306 305 306 306 306 305 306 305 306 310 310 312 309 311 313 314 315 315 316 318 318 318 319 318 318 316 316 314 316 319 319 315 314 313 319 320 320 320 318 316 315 317 316 316 316 315 314 315 315 315 315 314 313
307 305 306 306 306 305 305 305 306 308 310 311 311 311 312 312 315 315 315 315 317 318 317 317 316 316 316 314 318 319 319 318 316 315 317 320 318 316 316 315 315 317 317 316 316 316 315 314 314 314 314 314 314 313
306 304 305 306 304 304 306 307 308 311 311 312 312 313 313 313 314 314 314 315 315 318 317 318 318 317 312 315 317 315 316 314 317 317 316 316 316 316 317 317 318 317 317 316 316 315 314 314 313 314 314 313 312 314
305 305 305 304 305 306 307 309 309 310 312 313 313 313 313 313 313 314 315 315 316 319 318 317 317 317 317 317 314 312 316 317 318 317 317 317 316 317 317 318 318 315 315 315 315 313 313 313 314 314 315 315 314 313
305 305 305 305 306 306 306 309 310 310 311 312 312 313 313 313 313 315 316 317 317 319 319 316 314 313 313 313 315 316 317 317 317 317 317 318 317 316 315 314 314 314 314 314 314 313 313 313 314 314 314 314 314 314
305 305 306 306 306 305 306 308 309 311 312 313 313 312 313 314 314 315 316 318 319 318 316 313 312 315 315 316 317 318 318 317 317 316 316 317 316 315 314 315 314 314 314 314 314 314 314 314 314 314 313 313 313 313
304 306 306 306 306 307 306 307 308 310 311 312 313 313 313 314 314 315 317 319 318 317 314 317 317 317 317 317 318 318 317 316 317 317 316 315 315 315 315 315 314 314 314 314 314 314 314 313 314 314 313 312 312 311
304 305 306 305 306 307 307 308 308 309 309 310 311 313 313 314 316 317 318 318 317 318 317 318 318 318 318 317 316 314 314 314 314 316 315 314 314 314 314 314 314 314 314 314 314 313 314 314 313 313 312 312 311 310
304 305 306 306 306 306 307 308 309 311 311 313 315 315 316 317 319 318 318 318 318 319 317 318 318 318 318 314 312 313 314 315 314 314 314 314 314 314 314 314 314 314 314 314 314 314 313 312 313 313 313 313 312 310
304 305 306 308 308 306 308 309 311 313 315 315 314 317 317 319 320 318 316 317 320 318 315 317 317 317 313 312 313 314 315 315 316 314 313 313 313 313 313 313 314 314 314 313 313 313 312 312 312 313 312 312 310 310
305 306 305 304 307 310 310 313 315 314 315 314 317 316 317 319 316 316 318 318 320 316 312 312 314 313 312 311 313 315 315 315 315 315 315 314 314 313 313 313 313 314 313 313 313 312 312 312 312 312 312 310 310 311
304 307 306 306 309 309 310 315 317 317 314 316 315 318 318 316 317 318 315 320 320 318 313 313 314 314 315 315 314 315 315 315 315 314 314 315 315 314 314 313 313 312 313 311 311 311 310 310 310 310 309 310 310 310
306 308 307 307 308 310 312 314 314 315 318 320 317 318 316 319 318 315 319 320 319 319 316 313 314 315 314 315 315 315 315 315 315 314 314 314 315 315 314 312 309 312 313 311 310 310 309 310 310 309 310 310 310 310
306 307 306 308 309 310 312 313 313 314 314 318 318 318 320 320 318 319 320 319 318 318 317 314 314 315 315 315 315 315 315 314 314 314 315 315 315 315 314 312 311 310 310 310 310 310 309 309 310 310 310 310 311 312
306 307 308 308 308 310 311 312 313 315 317 318 317 318 319 320 319 319 319 319 318 317 316 315 314 315 315 315 315 315 315 315 314 314 314 315 315 315 316 315 313 312 311 311 312 312 312 311 311 311 311 311 311 312
306 307 307 308 309 310 313 314 315 316 315 315 315 315 315 315 316 316 317 317 318 319 320 319 315 314 315 315 315 315 315 315 315 315 315 315 315 315 315 314 314 314 313 312 312 312 312 312 312 312 312 312 312 312
308 308 307 308 309 311 312 313 314 314 314 314 314 314 315 315 316 317 317 317 317 318 319 319 318 315 314 314 315 315 315 315 315 315 315 315 315 315 315 314 313 312 313 313 312 311 312 312 312 312 311 312 312 312
308 309 310 310 312 313 312 310 310 311 312 314 315 315 315 316 316 317 316 316 317 317 317 319 319 316 314 315 315 315 315 315 315 315 315 315 314 313 313 314 313 313 312 312 312 312 312 311 312 312 312 312 312 311
308 309 310 310 311 312 313 313 314 315 315 315 316 316 316 316 316 316 316 316 316 317 318 318 318 319 319 319 318 316 316 315 316 315 315 315 315 314 314 314 313 313 313 312 312 312 312 312 312 312 312 312 312 311
Wind_Speed
16 16 16 16 17 17 17 17 18 18 18 17 17 16 14 11 9 6 4 8 9 5 10 4 1 3 3 2 1 3 3 3 4 3 3 3 3 3 1 1 2 5 5 3 3 4 4 6 2 4 7 18 16 13
15 16 16 16 16 17 18 18 18 19 19 18 16 15 14 12 9 7 4 9 11 8 7 9 10 5 6 4 4 3 2 2 3 4 1 2 1 1 3 2 2 1 5 5 3 4 4 6 15 19 21 20 13 12
14 14 15 16 15 16 17 18 20 21 20 18 17 15 13 11 9 8 7 9 10 6 10 8 6 8 6 6 4 3 3 2 2 2 6 2 2 4 3 4 3 1 3 4 3 3 3 18 20 18 14 13 9 5
13 15 16 16 16 15 15 17 19 21 22 19 17 14 12 10 10 8 6 7 8 5 3 3 3 7 8 4 4 6 7 5 3 3 2 2 2 5 3 2 3 3 4 6 2 2 7 7 11 10 8 5 3 5
13 14 16 17 17 15 15 17 19 20 21 20 17 14 12 9 8 7 2 3 8 6 4 10 9 8 8 6 6 6 7 6 4 1 2 2 3 3 1 2 1 5 6 4 4 17 5 13 9 5 2 2 4 6
13 14 15 17 17 16 16 17 19 18 19 19 17 14 12 9 6 2 2 2 6 9 4 4 4 5 8 8 7 6 5 5 3 2 2 2 1 1 3 2 4 4 8 7 8 25 9 14 10 4 0 3 5 6
13 15 16 16 16 14 15 17 16 18 19 19 16 14 11 7 4 2 1 4 7 9 3 7 9 2 7 8 5 5 4 2 3 2 3 3 3 3 3 3 5 10 9 16 23 19 14 13 7 5 2 3 5 8
14 14 16 16 15 13 15 16 16 19 22 20 14 11 8 4 1 1 1 4 7 5 3 1 4 5 7 4 3 5 4 4 3 2 2 2 3 1 1 5 12 13 18 19 17 7 10 12 8 5 3 3 8 13
12 14 15 15 15 15 16 18 19 20 23 21 13 9 5 1 1 2 9 9 8 5 3 2 2 3 2 4 4 4 3 0 2 1 2 4 1 3 6 11 23 24 21 18 16 12 9 6 3 1 4 7 13 14
12 14 15 15 15 16 18 20 21 22 21 18 9 2 2 2 9 9 2 1 2 3 4 4 3 3 2 3 2 2 1 2 1 3 3 2 3 9 7 10 25 26 16 16 16 10 7 2 2 4 7 10 12 16
13 14 14 15 15 17 19 21 22 21 16 11 7 3 6 9 4 1 1 2 2 2 4 5 6 3 2 1 3 3 1 1 1 3 3 1 3 3 4 10 18 19 11 14 7 6 2 5 7 7 8 11 14 17
13 13 14 15 16 17 18 19 21 17 12 14 11 9 5 3 1 2 1 3 2 2 2 3 4 5 2 2 1 2 2 1 2 1 2 2 3 6 5 13 16 14 13 10 5 1 4 8 7 8 11 12 15 17
13 13 14 14 15 17 14 16 18 14 13 6 3 3 3 2 4 1 3 1 3 2 3 7 3 2 2 8 2 1 2 3 1 1 2 3 2 10 17 18 16 13 9 5 1 2 5 6 6 7 10 11 12 15
12 13 13 14 15 14 15 15 16 12 6 3 2 4 1 2 3 3 2 3 5 7 11 7 2 3 3 3 4 1 0 2 1 1 4 2 10 14 15 13 11 9 6 3 0 3 5 4 3 7 10 11 12 12
12 12 12 14 13 15 17 14 15 9 3 2 1 3 4 5 8 11 8 7 7 6 8 3 1 5 3 4 1 1 1 2 4 4 3 11 14 10 9 7 5 6 6 5 2 4 3 3 5 9 10 10 9 10
11 12 11 12 16 14 16 15 8 3 3 2 4 3 5 4 6 3 6 16 9 5 2 1 1 2 2 1 1 2 2 3 3 2 3 13 10 8 8 6 6 6 5 4 5 5 3 3 6 6 8 10 9 10
10 9 11 14 16 15 13 6 2 2 3 3 4 7 12 12 13 11 16 18 9 1 1 3 3 2 3 1 2 3 4 3 3 2 8 7 5 5 4 4 5 5 4 6 6 4 3 4 2 4 7 11 12 13
8 8 11 14 15 12 3 2 2 2 4 6 5 5 6 10 15 16 17 11 6 5 5 4 3 2 3 2 3 3 4 3 5 6 7 6 5 5 5 5 6 5 4 2 2 3 4 4 3 6 9 11 13 15
6 7 8 10 13 9 3 1 2 3 6 6 9 11 11 14 16 15 15 12 7 5 3 5 2 3 4 7 6 5 7 8 5 2 1 4 4 4 3 3 3 3 3 3 4 4 5 4 6 9 10 11 13 14
4 3 5 7 10 3 2 3 3 5 5 4 11 11 7 10 14 14 11 9 6 6 3 3 5 6 6 5 4 5 2 1 3 1 0 4 5 5 5 2 3 5 5 3 3 6 5 6 7 9 11 13 13 15
3 2 6 8 5 3 3 3 4 5 6 6 10 11 8 11 11 11 9 11 7 4 6 9 11 8 5 4 0 1 1 2 2 5 4 5 6 4 4 4 3 6 8 3 3 3 4 6 8 10 12 13 15 17
4 3 6 4 2 3 4 5 5 7 6 7 8 4 6 4 3 2 3 6 5 7 6 5 5 2 5 5 4 4 3 3 2 1 2 2 2 3 2 1 4 4 6 6 6 6 7 5 6 8 10 11 14 16
3 3 2 2 2 3 6 5 4 4 3 3 3 3 3 3 2 2 3 5 5 5 3 3 5 7 7 5 5 3 2 5 4 4 2 1 2 2 4 5 7 7 7 5 4 5 3 3 5 8 10 14 17 15
3 2 3 3 5 4 4 4 5 5 4 3 2 3 2 3 4 2 3 3 3 4 5 5 6 8 6 6 4 1 2 4 3 4 1 2 4 4 6 7 5 6 5 5 5 6 9 10 10 9 8 11 13 14
2 3 3 4 4 4 3 3 4 2 3 3 2 3 2 3 2 2 2 3 4 10 9 8 9 8 6 5 3 2 3 5 4 3 3 4 5 6 4 5 6 5 4 6 5 3 4 3 2 7 9 6 9 11
3 5 8 5 3 4 4 3 3 4 3 2 4 2 1 1 1 4 3 3 5 13 14 12 9 6 5 5 4 3 2 4 7 7 4 5 6 8 9 12 12 9 7 4 3 3 3 4 2 2 3 7 10 13
4 5 8 7 5 5 6 10 10 4 3 3 2 2 1 1 3 4 4 4 1 6 10 11 9 6 5 3 4 4 6 8 9 8 4 3 4 6 7 7 8 3 5 5 5 6 7 5 5 4 5 7 9 15
7 5 5 5 7 7 4 5 3 3 3 3 4 3 3 3 4 1 3 4 1 5 6 9 10 9 7 7 8 10 7 8 10 8 7 4 5 6 5 3 1 3 4 2 2 3 2 3 4 6 8 9 13 13
6 8 5 6 6 7 7 8 5 4 1 2 2 2 3 4 7 9 11 8 3 4 8 10 14 12 10 10 10 7 5 8 11 13 13 10 8 6 5 7 6 4 5 3 2 1 1 2 4 7 10 13 14 14
7 12 6 5 5 6 8 11 8 9 8 11 9 15 23 25 20 20 16 12 14 14 14 13 10 16 16 13 12 9 9 9 7 6 9 13 13 10 8 6 7 9 9 9 9 10 11 12 13 14 14 14 14 13
4 9 6 8 6 12 20 19 19 21 23 26 27 24 27 28 25 19 17 14 14 11 11 13 16 15 17 18 18 17 16 13 11 10 7 7 9 11 9 7 7 8 10 12 12 12 11 12 14 16 17 12 10 8
9 12 7 4 5 8 11 16 19 20 23 26 27 24 23 19 20 27 24 16 13 13 13 18 19 20 18 18 18 19 17 16 17 11 8 8 7 6 7 9 9 12 13 14 13 13 13 14 12 13 10 7 6 5
14 11 10 14 8 5 8 11 6 5 9 8 14 20 23 23 16 29 24 21 18 17 17 15 19 21 17 16 16 16 13 11 9 11 13 12 10 10 10 10 9 13 16 14 14 15 17 16 13 12 9 6 5 5
Wind_Direction
347 349 350 353 354 354 351 353 354 353 351 350 349 348 352 355 351 344 289 335 350 304 287 256 303 10 355 3 127 332 16 328 44 74 134 212 183 249 360 287 200 173 138 167 99 96 215 16 356 164 146 124 125 112
348 349 350 353 355 356 351 353 355 354 350 347 347 347 346 347 342 338 320 317 318 282 276 277 259 276 265 270 316 303 268 247 195 92 165 112 184 60 147 232 26 275 183 155 171 192 314 65 107 116 125 121 118 109
344 348 351 352 353 355 354 355 358 360 354 349 346 344 344 340 336 332 335 339 337 303 296 284 258 241 226 237 257 294 279 256 238 188 154 157 163 131 170 238 132 66 158 95 85 301 57 103 106 108 107 103 100 75
337 342 345 347 346 349 349 350 352 354 356 353 347 342 341 336 329 331 332 354 359 322 319 281 302 200 207 216 256 278 278 242 215 200 130 138 158 186 200 193 154 186 112 131 62 52 114 120 119 116 110 93 47 355
331 334 338 340 340 340 342 342 342 344 347 349 347 340 335 331 323 328 289 344 4 4 290 292 295 207 227 230 252 268 259 236 224 194 89 223 166 130 27 84 223 185 160 154 200 182 153 167 149 134 106 2 336 330
327 329 332 335 336 335 339 342 343 343 343 341 340 336 330 329 323 295 283 297 340 351 312 316 289 250 216 215 245 268 249 225 207 207 214 219 176 155 106 199 264 206 172 138 146 165 142 151 155 162 268 329 328 315
324 327 328 330 333 335 340 344 348 349 346 341 336 332 329 329 316 235 272 313 328 331 295 306 313 312 183 198 222 233 230 221 226 194 219 191 170 154 108 174 200 140 135 129 141 141 136 161 173 193 259 287 289 301
322 327 329 329 329 329 336 343 344 347 347 338 329 327 329 334 25 124 338 313 323 314 277 276 275 319 188 194 204 200 204 205 212 217 186 190 148 90 222 230 163 147 138 145 156 147 146 165 183 195 223 261 297 310
315 324 325 326 325 323 325 330 333 334 338 337 322 311 297 318 34 295 303 287 281 261 287 230 235 257 217 204 198 182 203 75 239 184 234 138 320 215 226 194 177 171 171 175 169 165 159 163 143 206 294 302 310 318
310 320 322 323 325 324 324 326 325 328 331 335 330 310 236 268 317 309 303 264 224 219 233 250 251 267 279 194 186 156 185 185 169 251 139 119 244 238 218 223 197 185 175 171 162 173 176 138 19 316 312 320 327 327
303 312 319 319 322 326 327 326 327 331 337 346 334 295 304 309 317 290 266 227 195 260 222 246 243 273 318 149 212 197 215 136 135 262 139 255 274 267 282 222 198 186 179 166 167 145 101 16 348 330 331 332 332 331
300 307 313 316 321 327 329 334 336 334 338 327 310 306 331 355 329 353 289 293 214 261 280 258 302 239 264 281 81 218 159 26 216 152 99 255 267 356 127 146 149 155 154 153 155 111 360 347 344 343 340 339 334 336
298 303 309 314 319 323 326 333 341 334 332 327 338 329 336 349 28 316 352 12 295 248 295 329 309 337 72 13 299 148 153 221 112 58 239 236 348 125 128 128 130 138 151 152 123 351 338 338 341 346 341 340 341 343
294 302 306 314 320 322 321 322 331 331 333 320 343 324 128 289 246 222 234 253 277 279 324 0 135 70 61 66 267 226 293 81 44 301 241 239 155 143 139 137 140 146 157 168 158 339 323 312 329 346 337 334 343 352
288 298 304 312 311 314 318 317 319 307 287 277 268 240 232 256 274 284 299 317 309 296 7 58 73 188 204 250 275 83 69 280 208 234 235 175 164 163 165 165 187 210 200 202 245 294 276 281 320 332 335 339 340 351
287 297 307 310 316 316 313 320 306 256 258 248 237 268 260 284 293 313 312 333 334 287 307 63 50 343 326 5 318 223 166 227 261 224 171 166 176 199 216 230 204 196 207 220 254 271 262 286 322 345 352 352 341 338
283 297 311 311 314 317 316 323 282 253 258 247 257 259 268 281 275 292 315 317 311 242 131 70 16 265 317 315 254 185 207 223 243 164 170 198 253 231 208 215 214 208 245 259 252 240 235 270 253 340 356 6 354 337
280 298 313 319 323 331 319 313 294 271 258 254 251 278 250 273 284 293 302 313 286 208 180 197 179 240 225 218 251 251 242 269 260 233 244 252 212 220 232 213 217 250 239 208 188 200 202 196 243 317 332 339 345 347
282 305 317 324 330 337 333 282 269 269 258 272 267 275 278 283 284 288 298 308 229 197 198 168 161 216 234 219 219 243 272 268 256 226 287 197 184 171 163 194 214 206 198 190 209 204 219 251 299 319 320 321 328 337
280 306 334 334 338 319 290 266 257 261 268 288 278 276 262 271 278 278 277 263 225 183 194 213 220 227 234 279 289 299 339 123 199 281 59 179 184 185 173 190 224 217 209 239 267 231 268 295 306 319 319 324 324 320
230 259 310 326 326 305 267 264 250 255 287 271 281 290 271 269 267 259 256 224 211 223 237 240 252 277 257 237 251 125 60 5 304 237 264 213 212 225 265 237 237 234 237 261 302 282 291 309 315 313 330 332 319 323
235 283 313 345 314 286 274 254 261 289 272 272 291 248 272 285 270 240 195 189 233 237 227 284 309 269 179 132 114 104 88 50 35 152 170 182 211 231 219 219 254 254 255 272 286 287 295 290 315 342 343 342 343 342
246 287 278 251 256 251 266 265 257 245 245 257 268 274 254 264 273 235 242 230 249 243 223 149 121 124 134 139 145 139 93 48 80 133 152 275 276 266 223 251 283 290 273 273 277 313 325 316 315 315 319 326 335 345
239 253 228 242 214 256 267 251 238 257 263 257 243 274 266 290 314 258 262 255 235 182 160 148 154 162 156 170 168 114 359 1 25 38 319 278 303 316 258 259 294 316 273 252 261 296 300 286 279 279 310 331 359 4
269 239 203 251 232 243 245 247 233 221 251 225 253 273 313 330 343 288 259 265 207 175 161 157 169 184 189 211 237 240 285 324 337 314 303 313 328 318 306 288 302 319 273 258 271 304 326 341 261 287 298 325 341 352
224 218 197 217 229 202 226 258 225 219 222 242 232 257 302 60 313 259 250 294 200 187 181 178 177 194 214 207 211 224 310 334 320 312 336 334 336 327 315 306 313 295 242 261 266 278 295 315 324 321 296 321 336 343
242 241 225 229 248 276 266 260 262 261 258 225 202 188 129 253 246 254 282 303 14 184 180 166 177 194 196 213 260 299 309 312 323 334 323 291 298 291 294 320 5 63 197 237 259 286 292 253 229 280 320 328 333 341
238 256 200 206 218 243 256 283 267 231 236 209 157 189 206 221 241 254 320 334 335 153 173 194 209 222 247 277 292 296 286 272 282 282 300 296 265 268 274 256 27 106 107 122 297 337 66 176 233 290 312 319 328 336
231 224 229 239 237 237 226 217 239 252 269 204 211 253 252 250 294 314 327 316 287 213 207 216 217 223 241 262 288 302 277 269 267 261 257 308 322 306 285 233 217 196 188 179 171 156 310 307 301 302 305 307 304 300
240 216 217 231 210 222 229 224 244 241 262 300 296 293 297 298 300 308 306 299 271 271 266 252 231 226 238 251 267 273 266 278 270 252 259 265 279 297 323 284 259 242 236 248 258 265 273 284 292 299 312 314 317 321
240 197 219 236 254 245 245 252 266 272 277 285 289 284 286 292 296 295 299 300 307 286 242 239 229 222 232 242 250 257 264 274 292 287 308 293 291 293 289 274 253 243 246 247 255 258 267 281 294 299 302 306 309 323
208 209 211 228 252 266 261 246 256 263 269 273 274 271 269 266 268 283 286 290 288 289 267 233 229 224 226 234 244 255 265 277 288 292 245 248 242 246 255 258 249 235 236 242 252 262 279 294 305 315 296 279 314 313
213 224 239 262 265 238 230 210 226 247 238 241 253 257 254 252 257 273 273 272 271 277 278 263 238 225 224 232 241 245 263 271 247 245 241 238 251 262 268 260 274 250 239 245 256 268 285 281 286 296 272 269 301 281